Tracking 32412 objects as of 6-Dec-2025
HD Live streaming from Space Station
objects crossing your sky now

STARLINK-30144

Track STARLINK-30144 now!
10-day predictions
STARLINK-30144 is classified as:


NORAD ID: 56835
Int'l Code: 2023-079N
Perigee: 565.0 km
Apogee: 567.5 km
Inclination: 43.0 °
Period: 95.8 minutes
Semi major axis: 6937 km
RCS: Unknown
Launch date: June 4, 2023
Source: United States (US)
Launch site: AIR FORCE EASTERN TEST RANGE (AFETR)
Your satellite tracking list
Your tracking list is empty




NASA's NSSDC Master Catalog

Two Line Element Set (TLE):
1 56835U 23079N   25339.14087910  .00001067  00000-0  94027-4 0  9990
2 56835  43.0002 260.9712 0001775 260.4460  99.6182 15.02532139138667
Source of the keplerian elements: AFSPC